When you browse on this site, cookies collect data to enhance your experience and personalize the content and advertising you see.
Visit our Privacy Policy to learn more. By continuing to use the site, you agree to this use of cookies and data.

Météo par heure à Bridgetown

Ce jour, 10 Juillet, Vendredi

Heure Température Précipitation Vent Pression Humidité
00:00 +29°C° 0.1 mm 8 m/s 761 mmHg 78%
01:00 +29°C° 0.1 mm 8 m/s 760 mmHg 78%
02:00 +29°C° 0.1 mm 9 m/s 760 mmHg 77%
03:00 +29°C° 0.1 mm 9 m/s 760 mmHg 77%
04:00 +29°C° 0.1 mm 9 m/s 760 mmHg 76%
05:00 +29°C° 0.1 mm 9 m/s 760 mmHg 76%
06:00 +31°C° 0 mm 9 m/s 760 mmHg 73%
07:00 +31°C° 0 mm 9 m/s 761 mmHg 71%
08:00 +31°C° 0 mm 9 m/s 761 mmHg 69%
09:00 +32°C° 0 mm 9 m/s 761 mmHg 69%
10:00 +32°C° 0 mm 9 m/s 761 mmHg 69%
11:00 +32°C° 0 mm 9 m/s 762 mmHg 69%
12:00 +32°C° 0 mm 8 m/s 761 mmHg 70%
13:00 +32°C° 0 mm 8 m/s 761 mmHg 70%
14:00 +32°C° 0 mm 8 m/s 760 mmHg 70%
15:00 +32°C° 0.1 mm 9 m/s 760 mmHg 71%
16:00 +31°C° 0.1 mm 9 m/s 759 mmHg 73%
17:00 +31°C° 0.1 mm 10 m/s 759 mmHg 74%
18:00 +31°C° 0 mm 9 m/s 759 mmHg 75%
19:00 +29°C° 0 mm 9 m/s 760 mmHg 76%
20:00 +29°C° 0 mm 9 m/s 760 mmHg 76%
21:00 +29°C° 0.1 mm 9 m/s 760 mmHg 77%
22:00 +29°C° 0.1 mm 9 m/s 760 mmHg 78%
23:00 +29°C° 0.1 mm 9 m/s 761 mmHg 79%

Demain, 11 Juillet, Samedi

Heure Température Précipitation Vent Pression Humidité
00:00 +29°C° 0.1 mm 9 m/s 760 mmHg 79%
01:00 +29°C° 0.1 mm 9 m/s 760 mmHg 79%
02:00 +29°C° 0.1 mm 8 m/s 759 mmHg 79%
03:00 +29°C° 0.1 mm 8 m/s 759 mmHg 79%
04:00 +29°C° 0.1 mm 8 m/s 759 mmHg 78%
05:00 +29°C° 0.1 mm 8 m/s 759 mmHg 78%
06:00 +29°C° 0 mm 7 m/s 759 mmHg 76%
07:00 +30°C° 0 mm 7 m/s 759 mmHg 75%
08:00 +30°C° 0 mm 7 m/s 760 mmHg 73%
09:00 +30°C° 0.2 mm 7 m/s 760 mmHg 73%
10:00 +32°C° 0.2 mm 7 m/s 760 mmHg 73%
11:00 +32°C° 0.2 mm 8 m/s 761 mmHg 72%
12:00 +32°C° 0.1 mm 7 m/s 760 mmHg 72%
13:00 +32°C° 0.1 mm 7 m/s 760 mmHg 72%
14:00 +32°C° 0.1 mm 7 m/s 759 mmHg 71%
15:00 +32°C° 0.2 mm 7 m/s 759 mmHg 72%
16:00 +32°C° 0.2 mm 7 m/s 759 mmHg 74%
17:00 +32°C° 0.2 mm 7 m/s 758 mmHg 75%
18:00 +30°C° 0.1 mm 7 m/s 759 mmHg 77%
19:00 +30°C° 0.1 mm 7 m/s 759 mmHg 79%
20:00 +30°C° 0.1 mm 7 m/s 759 mmHg 81%
21:00 +30°C° 0.3 mm 7 m/s 760 mmHg 82%
22:00 +29°C° 0.3 mm 7 m/s 760 mmHg 83%
23:00 +29°C° 0.3 mm 7 m/s 760 mmHg 83%

Après-demain, 12 Juillet, Dimanche

Heure Température Précipitation Vent Pression Humidité
00:00 +29°C° 0.4 mm 8 m/s 760 mmHg 82%
01:00 +29°C° 0.4 mm 8 m/s 759 mmHg 81%
02:00 +29°C° 0.4 mm 9 m/s 759 mmHg 80%
03:00 +29°C° 0 mm 9 m/s 759 mmHg 78%
04:00 +29°C° 0 mm 9 m/s 759 mmHg 76%
05:00 +29°C° 0 mm 8 m/s 759 mmHg 74%
06:00 +31°C° 0 mm 8 m/s 760 mmHg 74%
07:00 +31°C° 0 mm 8 m/s 760 mmHg 74%
08:00 +32°C° 0 mm 8 m/s 760 mmHg 74%
09:00 +32°C° 0.1 mm 8 m/s 761 mmHg 74%
10:00 +32°C° 0.1 mm 8 m/s 761 mmHg 73%
11:00 +32°C° 0.1 mm 8 m/s 761 mmHg 73%
12:00 +32°C° 0.1 mm 8 m/s 760 mmHg 73%
13:00 +32°C° 0.1 mm 8 m/s 760 mmHg 73%
14:00 +32°C° 0.1 mm 8 m/s 760 mmHg 73%
15:00 +32°C° 0 mm 8 m/s 759 mmHg 73%
16:00 +32°C° 0 mm 8 m/s 759 mmHg 74%
17:00 +31°C° 0 mm 8 m/s 759 mmHg 74%
18:00 +31°C° 0.1 mm 9 m/s 759 mmHg 74%
19:00 +31°C° 0.1 mm 9 m/s 759 mmHg 73%
20:00 +31°C° 0.1 mm 9 m/s 760 mmHg 73%
21:00 +31°C° 0 mm 9 m/s 760 mmHg 73%
22:00 +31°C° 0 mm 9 m/s 760 mmHg 74%
23:00 +31°C° 0 mm 8 m/s 761 mmHg 75%

13 Juillet, Lundi

Heure Température Précipitation Vent Pression Humidité
00:00 +31°C° 0 mm 8 m/s 760 mmHg 74%
01:00 +29°C° 0 mm 8 m/s 760 mmHg 74%
02:00 +29°C° 0 mm 8 m/s 759 mmHg 73%
03:00 +29°C° 0 mm 8 m/s 759 mmHg 73%
04:00 +29°C° 0 mm 7 m/s 759 mmHg 73%
05:00 +29°C° 0 mm 7 m/s 760 mmHg 73%
06:00 +29°C° 0 mm 7 m/s 760 mmHg 73%
07:00 +31°C° 0 mm 8 m/s 760 mmHg 73%
08:00 +31°C° 0 mm 8 m/s 761 mmHg 72%
09:00 +31°C° 0 mm 8 m/s 761 mmHg 71%
10:00 +32°C° 0 mm 8 m/s 761 mmHg 69%
11:00 +32°C° 0 mm 8 m/s 761 mmHg 67%
12:00 +32°C° 0.1 mm 8 m/s 761 mmHg 68%
13:00 +32°C° 0.1 mm 8 m/s 760 mmHg 69%
14:00 +32°C° 0.1 mm 8 m/s 760 mmHg 71%
15:00 +32°C° 0 mm 8 m/s 760 mmHg 71%
16:00 +30°C° 0 mm 7 m/s 759 mmHg 71%
17:00 +30°C° 0 mm 7 m/s 759 mmHg 71%
18:00 +30°C° 0 mm 7 m/s 759 mmHg 73%
19:00 +30°C° 0 mm 7 m/s 760 mmHg 75%
20:00 +29°C° 0 mm 6 m/s 760 mmHg 77%
21:00 +29°C° 0.1 mm 7 m/s 760 mmHg 75%
22:00 +30°C° 0.1 mm 7 m/s 761 mmHg 73%
23:00 +30°C° 0.1 mm 7 m/s 761 mmHg 71%

14 Juillet, Mardi

Heure Température Précipitation Vent Pression Humidité
00:00 +29°C° 0 mm 7 m/s 760 mmHg 73%
01:00 +29°C° 0 mm 7 m/s 760 mmHg 74%
02:00 +29°C° 0 mm 6 m/s 759 mmHg 76%
03:00 +29°C° 0 mm 6 m/s 759 mmHg 75%
04:00 +29°C° 0 mm 6 m/s 759 mmHg 75%
05:00 +29°C° 0 mm 6 m/s 759 mmHg 74%
06:00 +29°C° 0 mm 6 m/s 760 mmHg 73%
07:00 +30°C° 0 mm 6 m/s 760 mmHg 73%
08:00 +30°C° 0 mm 6 m/s 761 mmHg 72%
09:00 +30°C° 0.1 mm 6 m/s 761 mmHg 71%
10:00 +32°C° 0.1 mm 6 m/s 761 mmHg 69%
11:00 +32°C° 0.1 mm 6 m/s 761 mmHg 68%
12:00 +32°C° 0 mm 6 m/s 760 mmHg 66%
13:00 +32°C° 0 mm 5 m/s 760 mmHg 64%
14:00 +32°C° 0 mm 5 m/s 759 mmHg 63%
15:00 +32°C° 0 mm 5 m/s 759 mmHg 64%
16:00 +32°C° 0 mm 5 m/s 759 mmHg 66%
17:00 +30°C° 0 mm 5 m/s 759 mmHg 68%
18:00 +30°C° 0 mm 5 m/s 759 mmHg 71%
19:00 +30°C° 0 mm 5 m/s 759 mmHg 74%
20:00 +29°C° 0 mm 5 m/s 760 mmHg 77%
21:00 +29°C° 0.1 mm 5 m/s 760 mmHg 77%
22:00 +29°C° 0.1 mm 6 m/s 760 mmHg 76%
23:00 +29°C° 0.1 mm 6 m/s 760 mmHg 76%

15 Juillet, Mercredi

Heure Température Précipitation Vent Pression Humidité
00:00 +29°C° 0.1 mm 6 m/s 760 mmHg 77%
01:00 +29°C° 0.1 mm 6 m/s 760 mmHg 78%
02:00 +29°C° 0.1 mm 6 m/s 759 mmHg 79%
03:00 +28°C° 0.1 mm 6 m/s 759 mmHg 79%
04:00 +28°C° 0.1 mm 6 m/s 759 mmHg 78%
05:00 +28°C° 0.1 mm 6 m/s 759 mmHg 77%
06:00 +29°C° 0.1 mm 6 m/s 760 mmHg 77%
07:00 +29°C° 0.1 mm 6 m/s 760 mmHg 77%
08:00 +29°C° 0.1 mm 6 m/s 760 mmHg 77%
09:00 +30°C° 0 mm 6 m/s 760 mmHg 74%
10:00 +30°C° 0 mm 6 m/s 760 mmHg 72%
11:00 +32°C° 0 mm 6 m/s 760 mmHg 69%
12:00 +32°C° 0 mm 6 m/s 760 mmHg 68%
13:00 +32°C° 0 mm 6 m/s 760 mmHg 67%
14:00 +32°C° 0 mm 6 m/s 759 mmHg 65%
15:00 +32°C° 0 mm 6 m/s 759 mmHg 68%
16:00 +30°C° 0 mm 5 m/s 759 mmHg 70%
17:00 +30°C° 0 mm 5 m/s 759 mmHg 72%
18:00 +30°C° 0 mm 5 m/s 759 mmHg 74%
19:00 +29°C° 0 mm 6 m/s 759 mmHg 77%
20:00 +29°C° 0 mm 6 m/s 759 mmHg 79%
21:00 +29°C° 0 mm 6 m/s 760 mmHg 80%
22:00 +29°C° 0 mm 6 m/s 760 mmHg 81%
23:00 +29°C° 0 mm 6 m/s 760 mmHg 82%
Voir plus